Lid_Strength_Index
2 2 2 2 2 2 2 2 2 2 3 3 3 3 3 3 3 3 3 3 3 3 4 3 3 2 2 5 6 2 -1 -0 1 3 4 5 6 7 8 8 7 8 8 7 5 5 5
2 1 1 2 2 2 2 2 3 3 3 3 3 4 3 3 3 3 3 3 3 4 3 3 2 2 3 7 2 2 1 2 2 3 4 4 6 6 7 7 7 6 6 5 4 4 4
1 1 1 2 2 2 2 2 3 3 3 3 3 4 3 3 3 3 3 3 3 3 3 2 2 2 4 6 2 2 2 2 2 3 4 4 4 6 6 7 5 5 7 6 5 6 6
1 1 1 2 2 2 2 2 2 2 3 3 3 3 4 4 3 3 3 4 4 3 3 2 2 2 6 2 1 2 2 2 1 2 3 3 3 5 6 5 5 7 7 9 6 5 5
1 1 1 2 2 2 2 2 2 2 2 3 3 3 4 4 3 3 4 4 4 3 2 2 2 3 7 2 4 2 2 4 3 3 3 4 4 6 6 7 8 7 10 9 8 5 6
1 1 1 2 2 2 2 2 2 2 2 3 3 3 3 4 4 4 4 4 3 3 2 2 3 5 6 7 4 4 3 3 5 5 5 5 6 7 6 8 12 10 10 9 9 7 6
1 1 2 2 2 2 2 2 2 2 2 2 3 3 3 3 4 4 4 2 3 4 3 7 7 7 6 4 3 4 4 4 4 5 8 6 8 9 8 7 8 8 9 10 8 6 7
2 2 2 2 2 2 2 2 2 2 3 3 3 3 3 4 4 4 3 4 4 3 6 5 5 6 5 5 7 6 4 6 7 8 7 7 9 7 6 7 8 8 10 10 8 7 8
2 2 2 2 2 3 2 2 2 3 3 3 3 3 3 4 4 3 4 4 3 3 5 6 6 7 6 5 8 7 5 6 7 8 8 9 8 6 7 8 9 9 10 10 10 8 7
2 2 2 3 3 3 2 2 2 2 3 3 3 4 4 4 5 3 4 3 3 2 8 9 8 7 6 6 8 6 5 6 7 8 7 8 6 7 8 9 8 11 7 9 10 11 14
2 2 3 3 2 3 3 3 3 3 3 3 4 4 4 5 2 4 4 2 2 2 13 9 8 5 6 8 8 7 5 6 8 8 7 8 8 8 9 9 7 10 7 9 9 11 12
2 2 2 2 3 3 4 4 4 3 3 4 4 4 4 3 2 3 3 2 2 9 14 10 8 9 9 8 8 7 7 4 5 7 7 7 5 7 7 7 7 7 8 9 10 11 18
3 3 3 3 3 3 4 4 3 3 3 4 4 4 4 2 4 2 1 2 8 11 9 11 10 9 10 10 9 8 8 8 9 12 11 8 8 6 6 8 7 8 11 18 16 17 15
3 3 3 3 3 3 4 4 3 3 3 3 5 5 3 2 2 3 3 7 12 11 11 9 9 10 11 9 9 8 9 9 7 8 10 12 12 8 6 8 10 10 12 18 23 19 16
4 4 3 3 3 4 4 5 4 4 5 5 6 2 2 3 3 3 5 10 10 10 9 10 9 11 10 9 9 9 9 10 8 7 12 13 12 7 7 6 7 10 13 10 17 16 19
3 4 3 4 5 5 5 4 4 4 4 5 4 3 3 2 2 3 6 11 9 8 8 9 11 10 11 9 9 9 10 8 9 7 6 10 15 8 7 6 7 9 8 15 16 22 21
3 3 3 4 5 5 5 4 4 4 5 5 3 5 3 2 2 5 8 9 9 7 7 8 9 9 9 10 9 10 10 9 8 8 6 8 11 11 8 9 10 9 12 12 14 16 21
2 3 4 5 5 5 5 5 4 5 5 5 4 8 3 2 6 6 8 8 9 7 6 7 7 8 8 9 9 10 10 9 7 7 9 7 10 14 11 7 6 7 10 11 18 19 17
3 4 5 5 5 5 6 5 5 5 5 4 6 5 2 2 7 8 7 8 7 7 7 7 7 7 7 8 10 9 9 8 7 8 9 7 12 15 12 9 8 9 9 10 10 12 17
4 5 6 5 6 6 6 6 5 5 5 4 5 7 4 4 4 7 7 7 8 6 7 6 7 7 7 8 7 9 9 8 8 8 6 6 10 13 18 13 10 13 10 9 11 16 17
6 6 6 6 6 6 6 6 5 5 4 3 4 6 6 7 6 6 6 7 8 8 6 6 7 7 8 10 9 9 8 8 8 8 6 8 12 10 10 10 10 10 11 10 12 12 17
7 7 6 7 7 6 6 6 5 4 4 2 5 5 4 4 6 6 7 8 8 8 7 8 8 7 7 9 8 9 8 8 9 8 7 7 12 10 12 9 9 11 10 10 10 12 13
7 7 7 6 6 6 6 5 5 4 3 3 3 3 5 7 7 7 7 7 8 6 6 6 6 7 8 7 5 5 5 5 7 8 8 9 10 12 13 10 10 15 12 10 10 11 11
7 7 7 6 6 6 5 5 5 4 3 2 2 3 6 7 6 7 7 7 7 7 8 6 5 7 5 3 4 4 5 6 6 6 6 9 10 11 13 12 17 11 7 8 9 10 9
7 7 7 6 5 5 5 5 5 4 3 3 2 3 5 7 6 6 7 7 6 5 6 6 5 4 3 5 8 9 8 9 8 7 7 7 9 12 14 14 11 11 9 9 10 11 8
6 6 5 5 5 5 5 5 5 4 4 3 3 2 4 7 6 5 6 6 7 7 7 6 4 2 4 6 8 12 13 11 11 9 7 8 8 11 12 17 20 11 7 5 6 15 7
6 6 6 5 5 5 5 5 4 5 4 3 2 2 3 6 5 5 6 7 5 6 7 6 6 5 4 7 9 10 11 9 12 12 11 10 10 11 12 13 11 8 6 5 13 12 6
6 6 6 5 5 5 5 5 5 4 4 4 3 1 4 6 5 4 4 5 5 6 8 6 6 6 7 9 9 9 10 9 11 9 10 11 11 11 11 13 17 6 6 9 7 5 5
6 6 6 6 5 6 5 5 4 4 4 4 5 2 1 5 5 2 2 2 3 3 5 6 6 6 6 8 8 8 10 9 10 13 7 11 9 11 10 9 6 4 5 4 4 5 5